Погода в Савееве

Россия / Смоленская область     54°13′41″N   33°19′55″E
темп.,
°C
ветер,
м/с
пор.,
м/с
влажн.,
%
обл.,
%
осадки,
мм/ч
давл.,
гПа
погр.,
м
24 июня, чт
чт2400:00+21юв238566 0.0 102051
03:00+20юв22893 0.0 102020
06:00+21юв258896 0.0 1020132
09:00+27ююв24655 0.0 1020491
12:00+31ююв33495 0.0 10191350
15:00+33ю33395 0.0 10181732
18:00+32ююз12465 0.0 10171473
21:00+20ююв387877 0.3 1018164
25 июня, пт
пт2500:00+18ююз228586 1.5 101733
03:00+18юв119045 2.4 101812
06:00+19юв239217 0.1 101662
09:00+26юв236846 0.1 1016332
12:00+31ю345051 0.0 10161290
15:00+33ю34385 0.0 10152452
18:00+31зюз3450100 0.0 10131418
21:00+18ююв31193100 2.8 1015224
26 июня, сб
сб2600:00+17юз2794100 0.0 1015125
03:00+18ююз009329 0.0 101411
06:00+18ю239598 1.6 101491
09:00+23ююв238092 1.6 1014244
12:00+29юз235780 0.0 1014889
15:00+28юз2262100 2.3 10131007
18:00+18ююз61395100 5.3 1014289
21:00+18ссв0189100 5.8 101322
27 июня, вс
вс2700:00+17ссз1194100 0.0 101315
03:00+16юв11945 0.0 101411
06:00+17ю12906 0.0 101448
09:00+23юз226579 0.0 1014498
12:00+27юз22535 0.0 1013869
15:00+29ююз22485 0.0 10131460
18:00+28зюз225629 0.0 10121157
21:00+20сз249415 1.4 101381
28 июня, пн
пн2800:00+18ссз269845 1.9 1013141
03:00+18с2799100 2.1 1013197
06:00+18св1599100 3.1 1013226
09:00+18ссв279898 5.7 1012362
12:00+20с369081 0.2 1012541
15:00+22ссз578580 1.6 1012825
18:00+21с51082100 0.8 1012810
21:00+18ссз3893100 2.4 1013308